This is the latest recevied weather packets stored in our database for station/object OK3MS-5. If no packets are shown the sender has not sent any weather packets the latest 10 day(s).
| Time | Temp. | Humidity | Pressure | Rain* | Wind** | Luminosity | Snow |
|---|---|---|---|---|---|---|---|
| 1777740003 | 23.33° C | 28% | 1016.3 hPa | 0 mm | - | 112 W/m² | - |
| 1777739703 | 23.33° C | 27% | 1016.4 hPa | 0 mm | - | 123 W/m² | - |
| 1777739404 | 23.33° C | 26% | 1016.5 hPa | 0 mm | - | 136 W/m² | - |
| 1777739103 | 23.33° C | 27% | 1016.6 hPa | 0 mm | - | 149 W/m² | - |
| 1777738808 | 23.33° C | 29% | 1016.7 hPa | 0 mm | - | 163 W/m² | - |
| 1777738503 | 22.78° C | 28% | 1016.9 hPa | 0 mm | - | 175 W/m² | - |
| 1777738205 | 22.78° C | 27% | 1016.8 hPa | 0 mm | - | 187 W/m² | - |
| 1777737904 | 23.89° C | 28% | 1016.6 hPa | 0 mm | - | 202 W/m² | - |
| 1777737604 | 24.44° C | 24% | 1016.7 hPa | 0 mm | - | 215 W/m² | - |
| 1777737303 | 23.33° C | 26% | 1016.9 hPa | 0 mm | - | 229 W/m² | - |
| 1777737004 | 23.89° C | 25% | 1016.9 hPa | 0 mm | - | 243 W/m² | - |
| 1777736704 | 23.89° C | 25% | 1016.9 hPa | 0 mm | - | 256 W/m² | - |
| 1777736405 | 23.89° C | 26% | 1017 hPa | 0 mm | - | 269 W/m² | - |
| 1777736105 | 23.89° C | 26% | 1017 hPa | 0 mm | - | 283 W/m² | - |
| 1777735803 | 23.89° C | 27% | 1017 hPa | 0 mm | - | 297 W/m² | - |
| 1777735505 | 23.33° C | 27% | 1017.1 hPa | 0 mm | - | 312 W/m² | - |
| 1777735205 | 23.89° C | 26% | 1017.3 hPa | 0 mm | - | 326 W/m² | - |
| 1777734903 | 23.89° C | 26% | 1017 hPa | 0 mm | - | 339 W/m² | - |
| 1777734606 | 23.89° C | 27% | 1017.2 hPa | 0 mm | - | 352 W/m² | - |
| 1777734304 | 24.44° C | 25% | 1017.3 hPa | 0 mm | - | 367 W/m² | - |
| 1777734004 | 23.33° C | 26% | 1017.4 hPa | 0 mm | - | 382 W/m² | - |
| 1777733704 | 23.89° C | 26% | 1017.3 hPa | 0 mm | - | 394 W/m² | - |
| 1777733404 | 23.33° C | 25% | 1017.5 hPa | 0 mm | - | 411 W/m² | - |
| 1777733102 | 23.33° C | 25% | 1017.6 hPa | 0 mm | - | 425 W/m² | - |
| 1777732804 | 23.33° C | 26% | 1017.7 hPa | 0 mm | - | 438 W/m² | - |
* Rain latest hour (hover to see other rain measurements)
** Current wind speed in m/s (hover to see current wind gust speed)